�����͌���@�Y���u�C�̈ړ���,,,,,,,,,,,,
�@,Time,Time int.,,Lat.,,Long.,,Distance,,Direction,Speed,
Date(yy/mm/dd),(hh:mm),(hour),(min),(deg),(min),(deg),(min),(miles),(meter),(deg),(m/s),(knots)
2004/11/24,9:10,,,36,47.676 ,137,4.182 ,,,,,
2004/11/24,9:15,0,5,36,47.700 ,137,4.236 ,0.06 ,109.44 ,66.0 ,0.36 ,0.71 
2004/11/24,9:20,0,5,36,47.700 ,137,4.266 ,0.03 ,55.56 ,90.0 ,0.19 ,0.36 
2004/11/24,9:25,0,5,36,47.706 ,137,4.302 ,0.04 ,67.59 ,80.5 ,0.23 ,0.44 
2004/11/24,9:30,0,5,36,47.724 ,137,4.338 ,0.04 ,74.54 ,63.4 ,0.25 ,0.48 
2004/11/24,9:35,0,5,36,47.736 ,137,4.362 ,0.03 ,49.69 ,63.4 ,0.17 ,0.32 
2004/11/24,9:40,0,5,36,47.748 ,137,4.404 ,0.04 ,80.90 ,74.1 ,0.27 ,0.52 
2004/11/24,9:45,0,5,36,47.766 ,137,4.428 ,0.03 ,55.56 ,53.1 ,0.19 ,0.36 
2004/11/24,9:55,0,10,36,47.784 ,137,4.500 ,0.07 ,137.45 ,76.0 ,0.23 ,0.45 
2004/11/24,10:00,0,5,36,47.808 ,137,4.512 ,0.03 ,49.69 ,26.6 ,0.17 ,0.32 
2004/11/24,10:10,0,10,36,47.838 ,137,4.560 ,0.06 ,104.83 ,58.0 ,0.17 ,0.34 
2004/11/24,10:15,0,5,36,47.850 ,137,4.590 ,0.03 ,59.84 ,68.2 ,0.20 ,0.39 
2004/11/24,10:20,0,5,36,47.868 ,137,4.602 ,0.02 ,40.06 ,33.7 ,0.13 ,0.26 
2004/11/24,10:25,0,5,36,47.880 ,137,4.626 ,0.03 ,49.69 ,63.4 ,0.17 ,0.32 
2004/11/24,10:30,0,5,36,47.886 ,137,4.656 ,0.03 ,56.66 ,78.7 ,0.19 ,0.37 
2004/11/24,10:35,0,5,36,47.898 ,137,4.668 ,0.02 ,31.43 ,45.0 ,0.10 ,0.20 
2004/11/24,10:40,0,5,36,47.898 ,137,4.704 ,0.04 ,66.67 ,90.0 ,0.22 ,0.43 
2004/11/24,10:45,0,5,36,47.922 ,137,4.722 ,0.03 ,55.56 ,36.9 ,0.19 ,0.36 
2004/11/24,10:55,0,10,36,47.934 ,137,4.752 ,0.03 ,59.84 ,68.2 ,0.10 ,0.19 
,,,,,,,,,,,,
,,,,,,,,,,,,
�A,Time,Time int.,,Lat.,,Long.,,Distance,,Direction,Speed,
Date(yy/mm/dd),(hh:mm),(hour),(min),(deg),(min),(deg),(min),(miles),(meter),(deg),(m/s),(knots)
2004/11/24,11:10,,,36,47.784 ,137,4.308 ,,,,,
2004/11/24,11:15,0,5,36,47.814 ,137,4.326 ,0.03 ,64.79 ,31.0 ,0.22 ,0.42 
2004/11/24,11:20,0,5,36,47.814 ,137,4.338 ,0.01 ,22.22 ,90.0 ,0.07 ,0.14 
2004/11/24,11:25,0,5,36,47.832 ,137,4.374 ,0.04 ,74.54 ,63.4 ,0.25 ,0.48 
2004/11/24,11:30,0,5,36,47.850 ,137,4.398 ,0.03 ,55.56 ,53.1 ,0.19 ,0.36 
2004/11/24,11:40,0,10,36,47.862 ,137,4.434 ,0.04 ,70.28 ,71.6 ,0.12 ,0.23 
2004/11/24,11:45,0,5,36,47.874 ,137,4.440 ,0.01 ,24.85 ,26.6 ,0.08 ,0.16 
2004/11/24,11:50,0,5,36,47.886 ,137,4.470 ,0.03 ,59.84 ,68.2 ,0.20 ,0.39 
2004/11/24,12:00,0,10,36,47.892 ,137,4.488 ,0.02 ,35.14 ,71.6 ,0.06 ,0.11 
2004/11/24,12:05,0,5,36,47.910 ,137,4.518 ,0.03 ,64.79 ,59.0 ,0.22 ,0.42 
2004/11/24,12:10,0,5,36,47.934 ,137,4.572 ,0.06 ,109.44 ,66.0 ,0.36 ,0.71 
2004/11/24,12:15,0,5,36,47.940 ,137,4.614 ,0.04 ,78.57 ,81.9 ,0.26 ,0.51 
2004/11/24,12:20,0,5,36,47.952 ,137,4.644 ,0.03 ,59.84 ,68.2 ,0.20 ,0.39 
2004/11/24,12:25,0,5,36,47.952 ,137,4.680 ,0.04 ,66.67 ,90.0 ,0.22 ,0.43 
2004/11/24,12:30,0,5,36,47.970 ,137,4.716 ,0.04 ,74.54 ,63.4 ,0.25 ,0.48 
2004/11/24,12:35,0,5,36,47.976 ,137,4.740 ,0.02 ,45.82 ,76.0 ,0.15 ,0.30 
2004/11/24,12:40,0,5,36,47.994 ,137,4.782 ,0.05 ,84.63 ,66.8 ,0.28 ,0.55 
2004/11/24,12:45,0,5,36,48.006 ,137,4.812 ,0.03 ,59.84 ,68.2 ,0.20 ,0.39 
2004/11/24,12:50,0,5,36,48.012 ,137,4.848 ,0.04 ,67.59 ,80.5 ,0.23 ,0.44 
2004/11/24,12:55,0,5,36,48.024 ,137,4.866 ,0.02 ,40.06 ,56.3 ,0.13 ,0.26 
2004/11/24,13:00,0,5,36,48.036 ,137,4.896 ,0.03 ,59.84 ,68.2 ,0.20 ,0.39 
2004/11/24,13:05,0,5,36,48.042 ,137,4.920 ,0.02 ,45.82 ,76.0 ,0.15 ,0.30 
2004/11/24,13:10,0,5,36,48.054 ,137,4.938 ,0.02 ,40.06 ,56.3 ,0.13 ,0.26 
2004/11/24,13:15,0,5,36,48.066 ,137,4.968 ,0.03 ,59.84 ,68.2 ,0.20 ,0.39 
2004/11/24,13:25,0,10,36,48.090 ,137,5.022 ,0.06 ,109.44 ,66.0 ,0.18 ,0.35 
2004/11/24,13:30,0,5,36,48.102 ,137,5.046 ,0.03 ,49.69 ,63.4 ,0.17 ,0.32 
2004/11/24,13:35,0,5,36,48.114 ,137,5.070 ,0.03 ,49.69 ,63.4 ,0.17 ,0.32 
,,,,,,,,,,,,
,,,,,,,,,,,,
�B,Time,Time int.,,Lat.,,Long.,,Distance,,Direction,Speed,
Date(yy/mm/dd),(hh:mm),(hour),(min),(deg),(min),(deg),(min),(miles),(meter),(deg),(m/s),(knots)
2004/11/24,9:10,,,36,47.640 ,137,4.242 ,,,,,
2004/11/24,9:15,0,5,36,47.640 ,137,4.272 ,0.03 ,55.56 ,90.0 ,0.19 ,0.36 
2004/11/24,9:20,0,5,36,47.634 ,137,4.296 ,0.02 ,45.82 ,104.0 ,0.15 ,0.30 
2004/11/24,9:25,0,5,36,47.622 ,137,4.320 ,0.03 ,49.69 ,116.6 ,0.17 ,0.32 
2004/11/24,9:30,0,5,36,47.628 ,137,4.338 ,0.02 ,35.14 ,71.6 ,0.12 ,0.23 
2004/11/24,9:35,0,5,36,47.634 ,137,4.368 ,0.03 ,56.66 ,78.7 ,0.19 ,0.37 
2004/11/24,9:40,0,5,36,47.634 ,137,4.404 ,0.04 ,66.67 ,90.0 ,0.22 ,0.43 
2004/11/24,9:45,0,5,36,47.634 ,137,4.422 ,0.02 ,33.34 ,90.0 ,0.11 ,0.22 
2004/11/24,9:50,0,5,36,47.634 ,137,4.446 ,0.02 ,44.45 ,90.0 ,0.15 ,0.29 
2004/11/24,10:00,0,10,36,47.640 ,137,4.512 ,0.07 ,122.74 ,84.8 ,0.20 ,0.40 
2004/11/24,10:05,0,5,36,47.640 ,137,4.524 ,0.01 ,22.22 ,90.0 ,0.07 ,0.14 
2004/11/24,10:10,0,5,36,47.640 ,137,4.548 ,0.02 ,44.45 ,90.0 ,0.15 ,0.29 
2004/11/24,10:15,0,5,36,47.640 ,137,4.584 ,0.04 ,66.67 ,90.0 ,0.22 ,0.43 
2004/11/24,10:20,0,5,36,47.646 ,137,4.608 ,0.02 ,45.82 ,76.0 ,0.15 ,0.30 
2004/11/24,10:30,0,10,36,47.664 ,137,4.656 ,0.05 ,94.94 ,69.4 ,0.16 ,0.31 
2004/11/24,10:35,0,5,36,47.670 ,137,4.668 ,0.01 ,24.85 ,63.4 ,0.08 ,0.16 
2004/11/24,10:45,0,10,36,47.688 ,137,4.710 ,0.05 ,84.63 ,66.8 ,0.14 ,0.27 
2004/11/24,10:55,0,10,36,47.706 ,137,4.746 ,0.04 ,74.54 ,63.4 ,0.12 ,0.24 
,,,,,,,,,,,,
,,,,,,,,,,,,
�C,Time,Time int.,,Lat.,,Long.,,Distance,,Direction,Speed,
Date(yy/mm/dd),(hh:mm),(hour),(min),(deg),(min),(deg),(min),(miles),(meter),(deg),(m/s),(knots)
2004/11/24,11:15,,,36,47.856 ,137,4.230 ,,,,,
2004/11/24,11:20,0,5,36,47.868 ,137,4.242 ,0.02 ,31.43 ,45.0 ,0.10 ,0.20 
2004/11/24,11:25,0,5,36,47.892 ,137,4.254 ,0.03 ,49.69 ,26.6 ,0.17 ,0.32 
2004/11/24,11:30,0,5,36,47.904 ,137,4.260 ,0.01 ,24.85 ,26.6 ,0.08 ,0.16 
2004/11/24,11:35,0,5,36,47.916 ,137,4.266 ,0.01 ,24.85 ,26.6 ,0.08 ,0.16 
2004/11/24,11:40,0,5,36,47.928 ,137,4.278 ,0.02 ,31.43 ,45.0 ,0.10 ,0.20 
2004/11/24,11:45,0,5,36,47.940 ,137,4.290 ,0.02 ,31.43 ,45.0 ,0.10 ,0.20 
2004/11/24,11:50,0,5,36,47.940 ,137,4.302 ,0.01 ,22.22 ,90.0 ,0.07 ,0.14 
2004/11/24,11:55,0,5,36,47.946 ,137,4.314 ,0.01 ,24.85 ,63.4 ,0.08 ,0.16 
2004/11/24,12:00,0,5,36,47.958 ,137,4.326 ,0.02 ,31.43 ,45.0 ,0.10 ,0.20 
2004/11/24,12:05,0,5,36,47.970 ,137,4.344 ,0.02 ,40.06 ,56.3 ,0.13 ,0.26 
2004/11/24,12:10,0,5,36,47.970 ,137,4.356 ,0.01 ,22.22 ,90.0 ,0.07 ,0.14 
2004/11/24,12:15,0,5,36,47.982 ,137,4.386 ,0.03 ,59.84 ,68.2 ,0.20 ,0.39 
2004/11/24,12:20,0,5,36,47.976 ,137,4.398 ,0.01 ,24.85 ,116.6 ,0.08 ,0.16 
2004/11/24,12:30,0,10,36,48.000 ,137,4.440 ,0.05 ,89.59 ,60.3 ,0.15 ,0.29 
2004/11/24,12:35,0,5,36,48.000 ,137,4.452 ,0.01 ,22.22 ,90.0 ,0.07 ,0.14 
2004/11/24,12:40,0,5,36,48.006 ,137,4.476 ,0.02 ,45.82 ,76.0 ,0.15 ,0.30 
2004/11/24,12:50,0,10,36,48.024 ,137,4.518 ,0.05 ,84.63 ,66.8 ,0.14 ,0.27 
2004/11/24,12:55,0,5,36,48.036 ,137,4.536 ,0.02 ,40.06 ,56.3 ,0.13 ,0.26 
2004/11/24,13:00,0,5,36,48.042 ,137,4.560 ,0.02 ,45.82 ,76.0 ,0.15 ,0.30 
2004/11/24,13:05,0,5,36,48.054 ,137,4.584 ,0.03 ,49.69 ,63.4 ,0.17 ,0.32 
2004/11/24,13:10,0,5,36,48.054 ,137,4.608 ,0.02 ,44.45 ,90.0 ,0.15 ,0.29 
2004/11/24,13:15,0,5,36,48.078 ,137,4.638 ,0.04 ,71.15 ,51.3 ,0.24 ,0.46 
2004/11/24,13:20,0,5,36,48.084 ,137,4.668 ,0.03 ,56.66 ,78.7 ,0.19 ,0.37 
2004/11/24,13:30,0,10,36,48.120 ,137,4.710 ,0.06 ,102.45 ,49.4 ,0.17 ,0.33 
